Location: Newark
(36.0797°N, 3.9744°E)
Time: 00:39:24
(UTC+00:00)

Tiros 1 - Pass Details

Date: 15 December 2019
Orbit: 630 x 664 km, 48.4° (Epoch: 21 January)

Event Time Altitude Azimuth Distance (km) Brightness Sun altitude
Exits shadow 06:11:16 - 301° (WNW) 2,143 9.2 -7.4°
Reaches altitude 10° 06:11:37 10° 304° (NW) 2,045 9.1 -7.3°
Maximum altitude 06:15:01 19° 351° (N) 1,516 8.8 -6.7°
Drops below altitude 10° 06:18:24 10° 37° (NE) 2,031 9.9 -6.1°
Sets 06:21:18 0° 55° (NE) 2,934 11.0 -5.5°
